Location: Home
(42.5358°N, 72.7383°W)
Time: 12:22:09
(UTC-05:00)

Explorer 7 - Pass Details

Date: 30 November 2021
Orbit: 483 x 674 km, 50.3° (Epoch: 26 January)

Event Time Altitude Azimuth Distance (km) Brightness Sun altitude
Rises 09:47:49 0° 289° (WNW) 2,670 9.9 20.7°
Reaches altitude 10° 09:50:22 10° 303° (WNW) 1,749 9.0 20.9°
Maximum altitude 09:53:41 25° 0° (N) 1,043 7.9 21.2°
Drops below altitude 10° 09:56:54 10° 58° (ENE) 1,687 9.3 21.5°
Sets 09:59:19 0° 72° (ENE) 2,554 10.3 21.7°
